Weather reports worldwide

Advertisment
Arezzo, Italy (16172): temperature & dewpoint: 10.09.2019 17:00:00 - 16.09.2019 17:00:00 (CEST)Arezzo, Italy (16172): wind speed: 10.09.2019 17:00:00 - 16.09.2019 17:00:00 (CEST)Arezzo, Italy (16172): wind direction: 10.09.2019 17:00:00 - 16.09.2019 17:00:00 (CEST)Arezzo, Italy (16172): reduced air pressure: 10.09.2019 17:00:00 - 16.09.2019 17:00:00 (CEST)Arezzo, Italy (16172): visibility: 10.09.2019 17:00:00 - 16.09.2019 17:00:00 (CEST)
Date & Time tt [°C] td [°C] ff [km/h] ff [kn] dd ppp [hPa] vv [km]
16.09.2019 17:00:00 29,0 12,4 5 3 NNE 1016,1 20
16.09.2019 16:00:00 - - - - - - -
16.09.2019 15:00:00 - - - - - - -
16.09.2019 14:00:00 28,8 15,0 8 4 SE 1018,1 20
16.09.2019 13:00:00 - - - - - - -
16.09.2019 12:00:00 - - - - - - -
16.09.2019 11:00:00 23,4 16,2 0 0 N 1019,8 20
16.09.2019 10:00:00 - - - - - - -
16.09.2019 09:00:00 - - - - - - -
16.09.2019 08:00:00 14,6 14,6 0 0 N 1020,7 12
16.09.2019 07:00:00 - - - - - - -
16.09.2019 06:00:00 - - - - - - -
16.09.2019 05:00:00 - - - - - - -
16.09.2019 04:00:00 - - - - - - -
16.09.2019 03:00:00 - - - - - - -
16.09.2019 02:00:00 - - - - - - -
16.09.2019 01:00:00 - - - - - - -
16.09.2019 00:00:00 - - - - - - -
15.09.2019 23:00:00 - - - - - - -
15.09.2019 22:00:00 - - - - - - -
15.09.2019 21:00:00 - - - - - - -
15.09.2019 20:00:00 23,4 19,1 0 0 N 1020,8 20
15.09.2019 19:00:00 - - - - - - -
15.09.2019 18:00:00 - - - - - - -
15.09.2019 17:00:00 28,2 16,2 5 3 S 1020,9 20
15.09.2019 16:00:00 - - - - - - -
15.09.2019 15:00:00 - - - - - - -
15.09.2019 14:00:00 28,6 14,4 11 6 SE 1022,6 20
15.09.2019 13:00:00 - - - - - - -
15.09.2019 12:00:00 - - - - - - -
15.09.2019 11:00:00 23,6 14,6 0 0 N 1024,2 20
15.09.2019 10:00:00 - - - - - - -
15.09.2019 09:00:00 - - - - - - -
15.09.2019 08:00:00 14,4 13,6 0 0 N 1025,2 18
15.09.2019 07:00:00 - - - - - - -
15.09.2019 06:00:00 - - - - - - -
15.09.2019 05:00:00 - - - - - - -
15.09.2019 04:00:00 - - - - - - -
15.09.2019 03:00:00 - - - - - - -
15.09.2019 02:00:00 - - - - - - -
15.09.2019 01:00:00 - - - - - - -
15.09.2019 00:00:00 - - - - - - -
14.09.2019 23:00:00 - - - - - - -
14.09.2019 22:00:00 - - - - - - -
14.09.2019 21:00:00 - - - - - - -
14.09.2019 20:00:00 24,6 15,8 13 7 E 1023,9 20
14.09.2019 19:00:00 - - - - - - -
14.09.2019 18:00:00 - - - - - - -
14.09.2019 17:00:00 28,6 14,4 15 8 ENE 1024,0 20
14.09.2019 16:00:00 - - - - - - -
14.09.2019 15:00:00 - - - - - - -
14.09.2019 14:00:00 29,4 13,2 13 7 ENE 1025,3 20
14.09.2019 13:00:00 - - - - - - -
14.09.2019 12:00:00 - - - - - - -
14.09.2019 11:00:00 26,8 12,5 11 6 E 1025,8 20
14.09.2019 10:00:00 - - - - - - -
14.09.2019 09:00:00 - - - - - - -
14.09.2019 08:00:00 13,6 12,5 0 0 N 1027,0 18
14.09.2019 07:00:00 - - - - - - -
14.09.2019 06:00:00 - - - - - - -
14.09.2019 05:00:00 - - - - - - -
14.09.2019 04:00:00 - - - - - - -
14.09.2019 03:00:00 - - - - - - -
14.09.2019 02:00:00 - - - - - - -
14.09.2019 01:00:00 - - - - - - -
14.09.2019 00:00:00 - - - - - - -
13.09.2019 23:00:00 - - - - - - -
13.09.2019 22:00:00 - - - - - - -
13.09.2019 21:00:00 - - - - - - -
13.09.2019 20:00:00 23,6 11,3 8 4 E 1025,8 18
13.09.2019 19:00:00 - - - - - - -
13.09.2019 18:00:00 - - - - - - -
13.09.2019 17:00:00 28,0 10,2 18 10 E 1025,9 18
13.09.2019 16:00:00 - - - - - - -
13.09.2019 15:00:00 - - - - - - -
13.09.2019 14:00:00 29,8 12,7 15 8 E 1026,3 16
13.09.2019 13:00:00 - - - - - - -
13.09.2019 12:00:00 - - - - - - -
13.09.2019 11:00:00 26,0 12,8 9 5 SE 1027,7 18
13.09.2019 10:00:00 - - - - - - -
13.09.2019 09:00:00 - - - - - - -
13.09.2019 08:00:00 14,0 12,9 0 0 N 1028,1 14
13.09.2019 07:00:00 - - - - - - -
13.09.2019 06:00:00 - - - - - - -
13.09.2019 05:00:00 - - - - - - -
13.09.2019 04:00:00 - - - - - - -
13.09.2019 03:00:00 - - - - - - -
13.09.2019 02:00:00 - - - - - - -
13.09.2019 01:00:00 - - - - - - -
13.09.2019 00:00:00 - - - - - - -
12.09.2019 23:00:00 - - - - - - -
12.09.2019 22:00:00 - - - - - - -
12.09.2019 21:00:00 - - - - - - -
12.09.2019 20:00:00 24,0 11,0 5 3 NNE 1026,0 16
12.09.2019 19:00:00 - - - - - - -
12.09.2019 18:00:00 - - - - - - -
12.09.2019 17:00:00 27,2 9,1 0 0 N 1025,5 18
12.09.2019 16:00:00 - - - - - - -
12.09.2019 15:00:00 - - - - - - -
12.09.2019 14:00:00 28,0 11,1 8 4 N 1025,4 18
12.09.2019 13:00:00 - - - - - - -
12.09.2019 12:00:00 - - - - - - -
12.09.2019 11:00:00 24,6 12,5 0 0 N 1025,5 17
12.09.2019 10:00:00 - - - - - - -
12.09.2019 09:00:00 - - - - - - -
12.09.2019 08:00:00 12,2 10,9 0 0 N 1028,8 15
12.09.2019 07:00:00 - - - - - - -
12.09.2019 06:00:00 - - - - - - -
12.09.2019 05:00:00 - - - - - - -
12.09.2019 04:00:00 - - - - - - -
12.09.2019 03:00:00 - - - - - - -
12.09.2019 02:00:00 - - - - - - -
12.09.2019 01:00:00 - - - - - - -
12.09.2019 00:00:00 - - - - - - -
11.09.2019 23:00:00 - - - - - - -
11.09.2019 22:00:00 - - - - - - -
11.09.2019 21:00:00 - - - - - - -
11.09.2019 20:00:00 25,0 15,1 5 3 NNE 1019,5 18
11.09.2019 19:00:00 - - - - - - -
11.09.2019 18:00:00 - - - - - - -
11.09.2019 17:00:00 27,0 10,7 11 6 SE 1018,2 20
11.09.2019 16:00:00 - - - - - - -
11.09.2019 15:00:00 - - - - - - -
11.09.2019 14:00:00 27,0 9,4 5 3 S 1018,4 20
11.09.2019 13:00:00 - - - - - - -
11.09.2019 12:00:00 - - - - - - -
11.09.2019 11:00:00 24,0 10,7 11 6 NE 1018,5 18
11.09.2019 10:00:00 - - - - - - -
11.09.2019 09:00:00 - - - - - - -
11.09.2019 08:00:00 15,0 14,2 0 0 N 1018,3 14
11.09.2019 07:00:00 - - - - - - -
11.09.2019 06:00:00 - - - - - - -
11.09.2019 05:00:00 - - - - - - -
11.09.2019 04:00:00 - - - - - - -
11.09.2019 03:00:00 - - - - - - -
11.09.2019 02:00:00 - - - - - - -
11.09.2019 01:00:00 - - - - - - -
11.09.2019 00:00:00 - - - - - - -
10.09.2019 23:00:00 - - - - - - -
10.09.2019 22:00:00 - - - - - - -
10.09.2019 21:00:00 - - - - - - -
10.09.2019 20:00:00 23,2 16,5 8 4 E 1013,5 16
10.09.2019 19:00:00 - - - - - - -
10.09.2019 18:00:00 - - - - - - -
10.09.2019 17:00:00 25,6 4,7 11 6 S 1013,3 20

tt = temperature
td = dewpoint
ff = wind speed
dd = wind direction
ppp = reduced air pressure
vv = visibility

Next stations